Probability
0 0 0 0 0 0 0 0 0 0 0 0 0 0 0 0 0 0 0 0 0 0 0 0 0 0 0 0 0 0 0 0 0 0 0 0 0 0 0 0 0 0 0 0
0 0 0 0 0 0 0 0 0 0 0 0 0 0 0 0 0 0 0 0 0 0 0 0 0 0 0 0 0 0 0 0 0 0 0 0 0 0 0 0 0 0 0 0
0 0 0 0 0 0 0 0 0 0 0 0 0 0 0 0 0 0 0 0 0 0 0 0 0 0 0 0 0 0 0 0 0 0 0 0 0 0 0 0 0 0 0 0
0 0 0 0 0 0 0 0 0 0 0 0 0 0 0 0 0 0 0 0 0 0 0 0 0 0 0 0 0 0 0 0 0 0 0 0 0 0 0 0 0 0 0 0
0 0 0 0 0 0 0 0 0 0 0 0 0 0 0 0 0 0 0 0 0 0 0 0 0 0 0 0 0 0 0 0 0 0 0 0 0 0 0 0 0 0 0 0
0 0 0 0 0 0 0 0 0 0 0 0 0 0 0 0 0 0 0 0 0 0 0 0 0 0 0 0 0 0 0 0 0 0 0 0 0 0 0 0 0 0 0 0
0 0 0 0 0 0 0 0 0 0 0 0 0 0 0 0 0 0 0 0 0 0 0 0 0 0 0 0 0 0 0 0 0 0 0 0 0 0 0 0 0 0 0 0
0 0 0 0 0 0 0 0 0 0 0 0 0 0 0 0 0 0 0 0 0 0 0 0 0 0 0 0 0 0 0 0 0 0 0 0 0 0 0 0 0 0 0 0
0 0 0 0 0 0 0 0 0 0 0 0 0 0 0 0 0 0 0 0 0 0 0 0 0 0 0 0 0 0 0 0 0 0 0 0 0 0 0 0 0 0 0 0
0 0 0 0 0 0 0 0 0 0 0 0 0 0 0 0 0 0 0 0 0 0 0 0 0 0 0 0 0 0 0 0 0 0 0 0 0 0 0 0 0 0 0 0
0 0 0 0 0 0 0 0 0 0 0 0 0 0 0 0 0 0 0 0 0 0 0 0 0 0 0 0 0 0 0 0 0 0 0 0 0 0 0 0 0 0 0 0
0 0 0 0 0 0 0 0 0 0 0 0 0 0 0 0 0 0 0 0 0 0 0 0 0 0 0 0 0 0 0 0 0 0 0 0 0 0 0 0 0 0 0 0
0 0 0 0 0 0 0 0 0 0 0 0 0 0 0 0 0 0 0 0 0 0 0 0 0 0 0 0 0 0 0 0 0 0 0 0 0 0 0 0 0 0 0 0
0 0 0 0 0 0 0 0 0 0 0 0 0 0 0 0 0 0 0 0 0 0 0 0 0 0 0 0 0 0 0 0 0 0 0 0 0 0 0 0 0 0 0 0
0 0 0 0 0 0 0 0 0 0 0 0 0 0 0 0 0 0 0 0 0 0 0 0 0 0 0 0 0 0 0 0 0 0 0 0 0 0 0 0 0 0 0 0
0 0 0 0 0 0 0 0 0 0 0 0 0 0 0 0 0 0 0 0 0 0 0 0 0 0 0 0 0 0 0 0 0 0 0 0 0 0 0 0 0 0 0 0
0 0 0 0 0 0 0 0 0 0 0 0 0 0 0 0 0 0 0 0 0 0 0 0 0 0 0 0 0 0 0 0 0 0 0 0 0 0 0 0 0 0 0 0
0 0 0 0 0 0 0 0 0 0 0 0 0 0 0 0 0 0 0 0 0 0 0 0 0 0 0 0 0 0 0 0 0 0 0 0 0 0 0 0 0 0 0 0
0 0 0 0 0 0 0 0 0 0 0 0 0 0 0 0 0 0 0 0 0 0 0 0 0 0 0 0 0 0 0 0 0 0 0 0 0 0 0 0 0 0 0 0
0 0 0 0 0 0 0 0 0 0 0 0 0 0 0 0 0 0 0 0 0 0 0 0 0 0 0 0 0 0 0 0 0 0 0 0 0 0 0 0 0 0 0 0
0 0 0 0 0 0 0 0 0 0 0 0 0 0 0 0 0 0 0 0 0 0 0 0 0 0 0 0 0 0 0 0 0 0 0 0 0 0 0 0 0 0 0 0
0 0 0 0 0 0 0 0 0 0 0 0 0 0 0 0 0 0 0 0 0 0 0 0 0 0 0 0 0 0 0 0 0 0 0 0 0 0 0 0 0 0 0 0
0 0 0 0 0 0 0 0 0 0 0 0 0 0 0 0 0 0 0 0 0 0 0 0 0 0 0 0 0 0 0 0 0 0 0 0 0 0 0 0 0 0 0 0
0 0 0 0 0 0 0 0 0 0 0 0 0 0 0 0 0 0 0 0 0 0 0 0 0 0 0 0 0 0 0 0 0 0 0 0 0 0 0 0 0 0 0 0
0 0 0 0 0 0 0 0 0 0 0 0 0 0 0 0 0 0 0 0 0 0 0 0 0 0 0 0 0 0 0 0 0 0 0 0 0 0 0 0 0 0 0 0
0 0 0 0 0 0 0 0 0 0 0 0 0 0 0 0 0 0 0 0 0 0 0 0 0 0 0 0 0 0 0 0 0 0 0 0 0 0 0 0 0 0 0 0
0 0 0 0 0 0 0 0 0 0 0 0 0 0 0 0 0 0 0 0 0 0 0 0 0 0 0 0 0 0 0 0 0 0 0 0 0 0 0 0 0 0 0 0
Height
5637 5635 5633 5632 5631 5629 5626 5624 5622 5621 5619 5618 5614 5611 5608 5605 5602 5599 5596 5593 5590 5587 5583 5579 5576 5572 5568 5564 5559 5556 5552 5548 5544 5540 5536 5533 5530 5526 5523 5520 5518 5515 5512 5510
5628 5627 5624 5623 5621 5619 5617 5615 5613 5611 5609 5607 5604 5601 5598 5595 5592 5589 5586 5582 5579 5575 5572 5568 5564 5560 5556 5551 5547 5543 5539 5535 5531 5527 5523 5519 5515 5512 5508 5505 5502 5499 5497 5494
5619 5617 5615 5614 5613 5610 5608 5606 5604 5601 5600 5596 5594 5591 5588 5585 5582 5578 5575 5572 5568 5564 5560 5556 5552 5548 5544 5539 5535 5530 5526 5522 5517 5513 5509 5505 5501 5497 5494 5490 5487 5484 5481 5478
5609 5608 5605 5607 5603 5601 5599 5596 5594 5591 5589 5586 5584 5581 5578 5574 5571 5568 5564 5561 5557 5553 5549 5545 5540 5536 5532 5527 5522 5518 5513 5508 5503 5499 5495 5491 5487 5483 5479 5475 5472 5469 5466 5463
5599 5597 5595 5596 5594 5591 5588 5587 5584 5581 5579 5576 5573 5570 5567 5564 5560 5557 5553 5549 5545 5541 5537 5533 5528 5524 5519 5515 5510 5505 5499 5494 5490 5485 5481 5477 5472 5468 5464 5461 5457 5454 5450 5447
5590 5587 5585 5587 5584 5580 5579 5577 5575 5571 5568 5565 5562 5560 5558 5553 5549 5546 5542 5538 5534 5529 5525 5521 5516 5511 5507 5502 5497 5491 5486 5481 5476 5471 5467 5462 5458 5454 5450 5446 5443 5439 5436 5432
5580 5577 5576 5576 5573 5570 5570 5568 5563 5560 5557 5554 5551 5549 5546 5542 5538 5534 5530 5526 5522 5517 5513 5508 5504 5499 5494 5489 5483 5478 5472 5467 5462 5457 5453 5448 5444 5440 5435 5432 5428 5425 5422 5419
5571 5569 5570 5566 5563 5561 5559 5556 5552 5549 5546 5544 5541 5538 5534 5530 5527 5523 5519 5515 5510 5506 5501 5496 5491 5486 5481 5475 5470 5464 5459 5454 5449 5444 5439 5434 5430 5425 5421 5417 5414 5411 5408 5405
5564 5563 5559 5556 5553 5551 5548 5545 5542 5539 5536 5533 5530 5527 5523 5519 5515 5511 5507 5503 5498 5494 5489 5484 5478 5473 5468 5462 5457 5451 5446 5441 5435 5430 5426 5421 5416 5411 5407 5403 5400 5396 5393 5391
5553 5552 5549 5546 5543 5540 5538 5535 5532 5529 5526 5522 5519 5515 5512 5508 5504 5499 5495 5491 5486 5481 5477 5471 5466 5460 5455 5449 5444 5438 5433 5428 5422 5417 5412 5407 5402 5397 5393 5389 5385 5382 5379 5377
5544 5542 5539 5536 5533 5531 5527 5524 5521 5518 5514 5511 5507 5504 5500 5496 5492 5487 5483 5478 5474 5469 5464 5459 5453 5448 5442 5437 5431 5426 5420 5415 5410 5404 5399 5394 5389 5384 5379 5375 5371 5368 5365 5363
5534 5532 5529 5527 5523 5520 5517 5514 5511 5507 5503 5500 5496 5492 5487 5483 5479 5475 5471 5466 5461 5456 5451 5446 5441 5435 5430 5424 5419 5413 5408 5402 5397 5391 5386 5381 5376 5371 5366 5362 5358 5354 5351 5349
5524 5522 5519 5516 5513 5510 5507 5503 5500 5496 5492 5488 5484 5480 5476 5471 5467 5463 5458 5454 5449 5444 5439 5434 5428 5423 5417 5412 5406 5400 5395 5389 5384 5378 5373 5368 5363 5358 5354 5349 5345 5341 5338 5336
5514 5512 5508 5506 5503 5499 5496 5493 5489 5485 5481 5477 5473 5469 5464 5460 5455 5451 5446 5441 5436 5431 5426 5421 5416 5411 5405 5400 5394 5388 5382 5377 5371 5366 5360 5355 5350 5345 5341 5337 5334 5330 5327 5324
5505 5502 5499 5495 5492 5489 5485 5482 5478 5474 5470 5466 5462 5457 5453 5448 5444 5439 5434 5429 5424 5419 5414 5409 5404 5399 5393 5388 5382 5376 5370 5365 5359 5354 5348 5343 5338 5333 5329 5325 5322 5319 5316 5313
5495 5492 5488 5485 5482 5478 5474 5471 5467 5463 5460 5455 5451 5446 5442 5437 5432 5428 5423 5418 5413 5408 5403 5398 5392 5387 5382 5376 5371 5365 5359 5354 5348 5343 5337 5332 5327 5322 5318 5314 5311 5308 5305 5302
5485 5482 5479 5475 5472 5468 5464 5460 5456 5452 5449 5444 5440 5436 5431 5426 5421 5417 5412 5407 5402 5397 5391 5386 5381 5376 5371 5365 5360 5354 5349 5343 5338 5332 5327 5322 5317 5312 5308 5304 5301 5298 5295 5292
5475 5472 5469 5465 5461 5457 5453 5449 5445 5442 5438 5434 5429 5425 5420 5415 5411 5406 5401 5396 5391 5386 5381 5376 5371 5365 5360 5355 5350 5344 5338 5333 5327 5322 5317 5312 5308 5303 5299 5295 5291 5288 5285 5283
5466 5462 5459 5455 5451 5447 5443 5438 5435 5431 5427 5423 5419 5414 5410 5405 5401 5396 5391 5386 5381 5376 5371 5366 5360 5355 5350 5344 5339 5334 5328 5323 5318 5313 5308 5303 5299 5294 5290 5286 5283 5279 5276 5273
5456 5452 5448 5444 5441 5437 5432 5428 5424 5421 5417 5413 5408 5404 5400 5395 5391 5386 5381 5377 5372 5367 5361 5356 5351 5345 5340 5335 5329 5324 5319 5314 5309 5304 5299 5295 5290 5286 5282 5278 5274 5271 5268 5265
5446 5442 5438 5434 5431 5427 5422 5418 5415 5411 5407 5403 5399 5394 5390 5386 5381 5377 5372 5367 5362 5357 5352 5346 5341 5336 5331 5325 5320 5315 5310 5305 5300 5295 5291 5287 5282 5278 5274 5270 5266 5263 5260 5257
5436 5432 5429 5425 5421 5417 5413 5409 5405 5401 5397 5393 5389 5385 5381 5376 5372 5367 5363 5358 5353 5348 5342 5337 5332 5326 5321 5316 5311 5306 5301 5297 5292 5287 5283 5279 5275 5271 5267 5263 5259 5256 5253 5250
5426 5422 5419 5415 5411 5407 5404 5400 5396 5392 5388 5384 5380 5376 5372 5367 5363 5359 5354 5349 5344 5339 5333 5328 5323 5317 5312 5307 5303 5298 5293 5288 5284 5279 5275 5271 5267 5263 5259 5255 5252 5249 5246 5244
5416 5412 5409 5405 5402 5398 5395 5391 5387 5383 5379 5375 5371 5367 5363 5359 5354 5349 5344 5340 5335 5330 5324 5319 5314 5309 5304 5299 5295 5290 5286 5281 5276 5272 5268 5263 5259 5256 5252 5249 5245 5242 5240 5238
5406 5403 5400 5396 5393 5389 5386 5382 5378 5374 5370 5367 5363 5358 5354 5350 5345 5340 5335 5331 5326 5321 5316 5311 5306 5301 5296 5292 5287 5283 5278 5274 5269 5265 5261 5257 5253 5249 5246 5242 5239 5237 5234 5233
5397 5394 5391 5388 5384 5381 5377 5373 5369 5365 5362 5358 5353 5349 5345 5341 5336 5332 5327 5323 5318 5313 5308 5303 5299 5294 5289 5285 5281 5276 5272 5267 5263 5259 5254 5250 5247 5243 5240 5237 5234 5232 5230 5228
5389 5385 5382 5379 5375 5372 5368 5365 5361 5357 5353 5349 5345 5341 5337 5333 5328 5324 5320 5315 5310 5305 5301 5296 5292 5287 5283 5278 5274 5270 5265 5261 5257 5253 5249 5245 5241 5238 5235 5232 5229 5227 5225 5223
Wind_Speed
29 29 30 31 31 32 33 33 35 34 34 33 34 35 35 36 36 36 37 37 37 38 39 40 41 42 42 44 45 46 46 47 48 49 49 50 51 51 52 53 53 54 54 55
30 30 31 32 32 32 33 33 34 35 34 34 34 35 36 37 37 37 38 38 38 39 40 41 41 42 42 43 45 45 46 47 48 49 49 49 50 50 51 52 53 53 53 54
31 31 33 33 32 33 34 34 35 35 35 35 34 35 36 37 37 38 38 39 39 40 41 42 42 42 43 44 44 45 46 47 48 49 50 50 50 51 52 52 52 52 53 53
32 32 34 33 33 33 33 34 34 35 35 35 36 36 37 37 38 38 39 40 40 41 42 42 42 43 43 44 45 46 47 47 48 49 49 50 50 51 51 52 52 52 52 52
33 34 35 33 33 33 33 33 34 34 35 36 36 36 37 37 38 39 39 40 40 41 42 42 43 44 44 45 46 46 47 47 48 48 49 49 49 50 50 50 50 51 51 51
32 33 34 33 33 32 33 34 33 34 35 36 37 37 37 38 38 39 40 41 41 42 43 43 44 45 45 46 46 47 47 47 47 47 48 48 49 50 50 49 49 49 49 50
32 33 34 33 33 34 34 34 34 35 35 36 37 37 38 39 39 40 40 41 41 43 44 44 45 46 46 47 47 48 48 47 47 47 48 48 49 49 49 49 48 48 48 48
31 33 34 33 33 33 33 34 35 35 35 36 36 37 38 39 40 40 41 41 42 43 43 44 45 46 47 47 47 47 47 47 47 47 47 48 48 48 48 48 48 48 47 47
32 32 33 32 33 33 33 34 34 35 35 36 37 37 38 39 40 40 41 41 42 43 44 45 46 46 46 46 46 46 46 46 47 47 47 47 47 47 47 47 47 47 46 46
31 31 32 33 33 33 34 34 35 36 37 37 38 39 39 40 41 41 42 42 43 43 44 44 45 45 46 46 46 46 46 46 46 46 47 47 47 47 47 46 46 45 45 44
31 32 32 33 33 34 34 35 37 38 39 40 40 41 41 42 42 42 42 43 43 44 44 44 45 45 46 46 46 46 46 46 46 46 46 46 46 46 45 45 45 44 44 43
32 33 33 33 34 35 36 37 38 38 39 40 41 42 42 42 42 42 42 43 43 44 44 44 45 45 45 45 46 45 45 45 45 45 45 45 45 44 44 43 43 43 42 42
32 32 33 34 35 36 36 37 38 39 39 39 40 41 41 42 42 42 42 42 43 43 44 44 44 44 44 45 45 45 45 45 45 45 44 44 44 43 42 42 41 41 41 40
32 33 34 34 35 36 37 37 38 39 39 39 39 40 40 41 41 41 42 42 43 43 44 44 44 44 44 44 44 44 44 44 43 43 43 42 42 41 40 39 38 38 38 38
33 33 34 35 36 36 37 38 38 38 39 39 39 40 40 40 41 41 41 42 42 43 43 43 43 43 43 43 43 42 42 42 41 41 40 40 39 38 37 36 36 36 35 36
33 33 34 35 36 37 38 38 38 38 38 39 39 39 39 40 40 40 40 41 41 42 42 42 42 42 41 41 41 40 40 40 39 39 38 37 36 35 34 34 33 33 33 34
33 33 34 35 35 36 37 37 37 37 38 38 38 38 38 39 39 39 40 40 40 41 40 40 40 40 39 39 39 39 39 39 38 38 37 36 35 34 33 32 32 32 32 32
33 34 34 34 35 35 36 37 37 37 37 37 37 37 38 38 38 38 38 38 38 38 38 37 37 38 38 38 38 38 37 37 36 36 35 34 33 32 32 31 31 30 30 29
33 34 34 35 35 36 36 37 37 36 36 36 36 36 37 37 36 36 37 37 37 37 37 37 37 37 37 37 37 37 36 35 34 34 33 32 31 30 30 30 30 29 29 28
34 34 34 35 35 36 36 36 35 35 35 35 35 35 35 35 35 35 36 36 36 36 36 37 37 36 36 36 36 35 34 33 32 32 31 30 29 29 28 28 28 28 27 25
34 34 34 35 35 35 35 34 34 34 34 34 34 34 34 34 35 35 35 35 36 36 36 36 36 36 35 35 35 34 33 32 31 30 30 28 28 28 28 27 26 26 25 24
34 34 34 35 34 34 34 33 33 33 33 33 33 33 34 34 34 34 35 35 35 36 36 35 35 35 34 34 33 33 32 31 30 29 28 28 27 26 26 25 25 24 23 22
34 34 34 34 33 33 33 32 32 32 32 33 33 33 33 33 34 34 34 35 35 35 35 35 34 34 33 32 32 31 31 30 29 28 28 27 26 25 25 24 23 22 21 20
34 34 33 32 32 32 32 32 32 32 32 32 32 33 33 33 33 33 34 34 34 34 34 33 33 32 31 30 30 29 29 29 28 27 27 26 25 24 24 23 21 20 19 18
33 32 32 31 31 31 31 31 31 32 32 32 32 32 33 33 32 32 32 32 32 32 32 32 31 30 29 28 28 28 28 28 27 26 26 25 25 23 22 21 20 18 17 16
31 31 30 30 31 31 31 31 31 32 32 32 32 32 32 31 31 30 31 31 31 31 30 30 29 29 28 27 27 27 27 27 26 25 25 24 23 21 20 19 18 16 16 15
30 30 30 30 30 30 30 31 31 31 31 31 30 30 29 29 29 29 30 30 30 29 28 28 27 27 27 26 26 26 26 25 24 24 23 22 21 20 18 17 16 15 14 14
Wind_Direction
281 281 281 282 283 284 284 285 286 288 287 288 287 286 287 289 290 290 290 290 289 289 289 289 290 289 288 288 288 287 286 285 284 284 283 283 283 281 281 280 280 279 278 276
281 282 283 283 284 284 284 284 286 287 287 288 288 288 288 289 290 290 290 290 289 289 289 290 291 291 291 290 289 289 288 287 286 285 284 284 283 283 282 282 282 281 279 278
283 284 283 284 286 285 284 284 285 286 287 288 288 288 288 288 289 289 289 289 289 289 291 291 292 292 292 292 291 291 290 288 287 286 285 284 284 283 283 283 282 281 280 279
285 286 286 288 287 286 286 285 286 287 287 288 288 287 288 288 289 290 290 290 291 292 293 293 293 293 293 293 293 292 291 290 288 287 287 286 285 285 285 283 282 281 280 279
286 287 288 289 289 289 287 286 286 287 287 287 288 288 288 289 290 291 292 292 292 293 294 294 293 293 294 294 293 293 292 291 290 289 288 287 287 286 285 284 283 282 281 280
286 288 289 291 291 289 288 287 288 288 287 288 288 289 290 291 292 293 293 293 293 293 294 294 295 295 294 294 294 294 293 292 292 291 289 288 288 287 286 285 284 283 282 281
288 288 289 292 292 292 290 291 290 289 289 290 290 291 291 292 293 294 294 294 294 294 294 295 295 295 295 295 295 295 294 293 292 292 290 289 289 288 287 285 284 284 283 282
288 289 290 292 292 292 292 291 290 291 291 292 292 292 293 293 294 295 295 295 295 295 296 296 297 296 296 296 296 296 295 293 293 292 291 290 289 289 287 286 285 284 283 282
288 289 291 291 291 291 291 291 291 292 292 292 293 293 294 295 295 296 296 296 296 297 297 297 297 298 297 297 297 297 296 294 293 293 292 291 290 290 288 286 285 283 282 282
288 289 290 291 291 291 292 292 292 293 292 292 293 294 295 296 296 296 297 297 297 298 298 298 299 299 298 298 298 297 297 296 295 294 293 293 292 291 289 287 285 283 282 281
287 288 289 290 291 292 293 293 293 293 293 293 293 294 295 296 296 296 297 297 298 299 299 299 300 300 299 299 298 297 297 297 296 296 295 294 293 293 291 288 286 283 281 280
288 289 290 291 292 292 292 293 293 293 294 294 294 295 295 295 296 296 296 297 298 299 300 300 300 300 299 299 299 298 297 297 297 296 295 295 294 293 292 289 286 284 282 281
290 291 290 291 291 292 293 293 294 294 295 296 296 296 296 296 296 296 296 297 298 299 300 300 301 300 300 300 300 300 299 298 298 297 296 296 295 294 292 290 287 285 283 281
290 291 291 292 292 293 294 294 295 296 297 298 298 298 298 298 298 298 298 299 299 300 300 301 301 301 301 301 301 301 300 300 300 299 298 297 296 295 292 290 288 286 284 282
292 293 293 293 293 294 294 295 296 297 298 299 299 300 300 300 300 300 300 300 300 301 301 301 301 301 302 302 303 302 302 302 301 301 300 300 298 297 294 291 289 287 285 282
294 295 295 295 296 297 297 296 297 297 298 300 300 301 301 301 302 301 301 301 302 302 302 302 303 303 303 304 304 304 304 304 303 303 302 302 301 299 297 294 291 289 287 285
296 296 296 297 298 299 299 299 299 299 299 300 301 302 302 302 302 302 303 303 303 304 304 304 304 305 305 305 305 306 305 305 303 303 303 302 301 300 298 296 294 292 289 287
296 297 297 298 300 301 300 300 300 300 301 301 302 303 303 303 303 304 304 305 306 306 307 307 307 307 306 306 307 307 307 306 305 304 304 303 302 301 300 298 296 294 291 288
297 299 299 300 301 301 301 301 300 300 301 302 303 304 305 305 305 305 305 306 307 307 308 309 309 309 308 308 308 308 308 307 307 306 305 305 304 303 301 299 298 296 293 289
301 301 301 301 302 302 302 302 301 301 302 303 304 304 305 305 306 306 307 308 308 308 309 309 310 310 310 310 309 309 309 308 307 307 307 305 305 304 302 301 299 297 294 290
301 302 301 302 302 302 302 302 302 302 303 303 304 305 306 306 306 306 307 308 309 310 310 310 310 310 310 310 310 310 310 309 309 308 307 307 305 304 303 303 301 299 295 292
302 302 302 302 302 302 302 302 302 302 303 304 305 306 306 307 307 307 307 308 310 311 311 311 311 311 310 310 310 310 310 310 310 309 307 306 306 305 304 303 302 300 297 294
302 302 302 302 302 302 303 303 303 303 303 304 305 306 307 307 308 308 309 309 310 311 312 312 313 312 311 310 311 311 312 311 311 310 309 307 306 306 305 304 302 300 297 293
301 301 301 302 302 302 303 303 303 303 304 304 305 306 307 308 308 309 309 310 311 312 313 314 314 314 313 313 313 313 313 313 312 312 311 310 309 308 307 305 303 300 296 292
301 302 302 303 303 304 304 304 304 304 304 305 305 306 307 308 309 310 311 312 313 314 314 315 315 315 315 314 314 314 314 314 313 313 313 312 310 308 307 307 304 301 296 292
302 302 302 302 303 304 304 305 305 305 305 306 306 307 307 308 310 311 313 314 315 315 316 316 317 317 317 315 315 315 315 316 316 315 316 315 314 311 308 306 305 302 298 292
302 302 302 303 304 304 304 305 306 306 306 306 306 307 308 310 311 313 314 315 316 316 317 317 318 319 319 318 317 316 317 317 317 317 318 318 318 316 313 310 307 304 301 296